Location: Molveno
(46.1500°N, 10.9667°E)
Time: 01:36:42
(UTC+00:00)

Cosmos 1933 - Pass Details

Date: 05 July 2020
Orbit: 548 x 563 km, 82.5° (Epoch: 11 August)

Event Time Altitude Azimuth Distance (km) Brightness Sun altitude
Rises 23:32:31 0° 341° (NNW) 2,730 8.1 -21.1°
Reaches altitude 10° 23:34:51 10° 332° (NNW) 1,832 6.8 -21.1°
Maximum altitude 23:38:25 31° 269° (W) 980 4.5 -21.1°
Enters shadow 23:38:44 31° 259° (W) 989 4.4 -21.1°
